Regional Weather Roundup
Issued by NWS

Home | Current Version | Previous Version | Text Only | Print | Product List | Glossary On
Versions: 1 2 3 4 5 6 7 8 9 10 11 12 13 14 15 16 17 18 19 20 21 22 23 24 25 26 27 28
000
ASUS44 KJAN 172210
RWRMS

MISSISSIPPI HOURLY WEATHER ROUNDUP
NATIONAL WEATHER SERVICE JACKSON MS
500 PM CDT WED APR 17 2024

NOTE: "FAIR: INDICATES FEW OR NO CLOUDS BELOW 12,000 FEET WITH NO
SIGNIFICANT WEATHER AND/OR OBSTRUCTIONS TO VISIBILITY.

MSZ001>002-007>008-010>013-018>021-025>028-034>036-172300-
NORTHWEST MISSISSIPPI

CITY           SKY/WX    TMP DP  RH WIND       PRES   REMARKS
CLARKSDALE       N/A     84  84 100 S8        29.97S HX 104
GREENWOOD      PTSUNNY   78  70  76 SW9       30.00S
GREENVILLE     CLOUDY    80  72  76 S10       29.97F
OLIVE BRANCH   MOSUNNY   81  64  57 SW14      29.96S
OXFORD         PTSUNNY   79  66  65 VRB7      30.00S
TUNICA         MOSUNNY   83  70  64 S9        29.96S
WINONA         CLOUDY    75  69  82 S5        30.01S
$$

MSZ003>006-009-014>017-022>024-029>033-037>039-172300-
NORTHEAST MISSISSIPPI

CITY           SKY/WX    TMP DP  RH WIND       PRES   REMARKS
ABERDEEN       PTSUNNY   73  73 100 SE6       30.03S
COLUMBUS AFB   NOT AVBL
CORINTH        PTSUNNY   79  68  69 S10       29.97S
GOLDN TRIANGLE CLOUDY    71  69  93 S9        30.04S
IUKA             N/A     76  70  83 VRB7      30.00S HAZE
LOUISVILLE     LGT RAIN  70  70 100 S3        30.06S
STARKVILLE     CLOUDY    73  72  94 SW5       30.01S
TUPELO         PTSUNNY   78  68  71 S12       29.99F
$$

MSZ040-058-172300-
CENTRAL MISSISSIPPI

CITY           SKY/WX    TMP DP  RH WIND       PRES   REMARKS
JACKSON INTL   CLOUDY    77  69  76 S6        30.01F
JACKSON HAWKNS CLOUDY    72  69  90 CALM      30.01S
MERIDIAN KEY   CLOUDY    76  67  73 S5        30.02F
MERIDIAN NAS   CLOUDY    77  67  71 S3        30.03S
VICKSBURG VKS  CLOUDY    75  72  88 CALM      29.99S
$$

MSZ059>079-172300-
SOUTH MISSISSIPPI

CITY           SKY/WX    TMP DP  RH WIND       PRES   REMARKS
BROOKHAVEN     PTSUNNY  N/A N/A N/A S9        30.04R
HATTIESBURG    CLOUDY    77  68  73 SE6       30.03F
LAUREL         SUNNY     79  68  69 S7        30.02F
MCCOMB         CLOUDY    76  68  76 S8        30.02F
NATCHEZ        CLOUDY    77  70  79 SW5       30.01S
PINE BELT      CLOUDY    77  68  73 S6        30.04F
$$

MSZ080>082-172300-
COASTAL MISSISSIPPI

CITY           SKY/WX    TMP DP  RH WIND       PRES   REMARKS
BILOXI         NOT AVBL
GULFPORT       CLOUDY    76  69  79 S10       30.03F
PASCAGOULA     CLOUDY    76  69  79 S8        30.05F
$$

LAZ007>009-015>016-023>026-172300-
NORTHEAST LOUISIANA

CITY           SKY/WX    TMP DP  RH WIND       PRES   REMARKS
BASTROP        CLOUDY    77  70  79 S7        29.99F
TALLULAH/VBURG CLOUDY    77  69  76 VRB3      30.00S
VIDALIA        CLOUDY    79  67  66 S10       30.03S
$$



USA.gov is the U.S. government's official web portal to all federal, state and local government web resources and services.